Location: Newark
(3.0500°N, 36.0167°E)
Time: 12:12:05
(UTC+00:00)

A-11 Canister half - Pass Details

Date: 26 August 2019
Orbit: 1513 x 1686 km, 47.2° (Epoch: 18 September)

Event Time Altitude Azimuth Distance (km) Brightness Sun altitude
Exits shadow 01:46:14 11° 197° (SSW) 3,821 10.8 -26.8°
Drops below altitude 10° 01:46:57 10° 193° (SSW) 3,926 10.9 -26.6°
Sets 01:51:57 0° 173° (S) 4,891 11.6 -25.4°
